Deer Park, WA
on Saturday, February 16, 2013

Saturday
Previous Day Next Day
Daily Summary
 ActualAverageRecord
Temperature
Mean Temperature °F 30°F  
Max Temperature 39°F 39°F 50°F (2007)
Min Temperature 18°F 21°F 9°F (2006)
Degree Days
Heating Degree Days 36 35  
Month to date heating degree days 554 568  
Since 1 July heating degree days 4662 4964  
Cooling Degree Days 0 0  
Month to date cooling degree days 0 0  
Year to date cooling degree days 0 0  
Moisture
Dew Point 28°F   
Average Humidity 88    
Maximum Humidity 100    
Minimum Humidity 76    
Precipitation
Precipitation 0.00 in 0.05 in 0.41 in (2004)
Month to date precipitation 0.03 1.00  
Year to date precipitation 1.53 3.63  
Wind
Wind Speed 2 mph   
Max Wind Speed 15 mph   
Max Gust Speed 18 mph   
Visibility 8 miles   
Events Fog   

Key: T is trace of precipitation, MM is missing value
Source: NWS Daily Summary
Time(PST)TemperatureDew PointHumidity Pressure Visibility Wind DirectionWind SpeedGust SpeedPrecipitationEvents Conditions
12:53 AM 24.1°F 23.0°F 96% 30.30 in 10.0 miles Calm Calm - N/A   Clear
1:53 AM 21.0°F 19.0°F 92% 30.28 in 10.0 miles Calm Calm - N/A   Clear
2:53 AM 26.1°F 24.1°F 92% 30.25 in 10.0 miles Calm Calm - N/A   Clear
3:53 AM 19.0°F 18.0°F 96% 30.23 in 10.0 miles Calm Calm - N/A   Clear
4:53 AM 19.0°F 17.1°F 92% 30.22 in 10.0 miles Calm Calm - N/A   Clear
5:53 AM 19.0°F 18.0°F 96% 30.22 in 9.0 miles Calm Calm - N/A   Mostly Cloudy
6:53 AM 23.0°F 21.0°F 92% 30.20 in 10.0 miles Calm Calm - N/A   Overcast
7:53 AM 21.9°F 21.0°F 96% 30.19 in 10.0 miles NW 3.5 mph - N/A   Clear
8:53 AM 27.0°F 26.1°F 96% 30.18 in 10.0 miles Calm Calm - N/A   Overcast
9:53 AM 30.9°F 30.0°F 96% 30.16 in 10.0 miles Calm Calm - N/A   Overcast
10:53 AM 34.0°F 30.0°F 85% 30.14 in 10.0 miles North - - N/A   Overcast
11:53 AM 36.0°F 30.9°F 82% 30.10 in 10.0 miles Calm Calm - N/A   Overcast
12:53 PM 36.0°F 30.9°F 82% 30.06 in 10.0 miles SE 5.8 mph - N/A   Overcast
1:29 PM 37.4°F 32.0°F 81% 29.97 in 10.0 miles Calm Calm - N/A   Overcast
1:53 PM 39.0°F 33.1°F 79% 30.03 in 10.0 miles Calm Calm - N/A   Overcast
2:04 PM 37.4°F 33.8°F 87% 29.96 in 10.0 miles Calm Calm - N/A   Overcast
2:53 PM 37.0°F 30.9°F 79% 30.01 in 10.0 miles North - - N/A   Overcast
3:30 PM 37.4°F 33.8°F 87% 29.94 in 10.0 miles SSW 6.9 mph - N/A   Overcast
3:53 PM 37.0°F 34.0°F 89% 30.00 in 10.0 miles South 4.6 mph - N/A   Overcast
4:28 PM 39.2°F 35.6°F 87% 29.93 in 9.0 miles South 8.1 mph - N/A   Overcast
4:53 PM 37.9°F 34.0°F 86% 30.00 in 9.0 miles SSW 8.1 mph - N/A   Mostly Cloudy
5:13 PM 37.4°F 33.8°F 87% 29.93 in 9.0 miles SSW 11.5 mph - N/A   Scattered Clouds
5:53 PM 37.0°F 34.0°F 89% 29.99 in 10.0 miles SSW 9.2 mph - N/A   Clear
6:53 PM 34.0°F 32.0°F 92% 29.96 in 9.0 miles South 8.1 mph - N/A   Clear
7:53 PM 30.9°F 28.9°F 92% 29.96 in 9.0 miles WSW 4.6 mph - N/A   Scattered Clouds
8:53 PM 28.9°F 28.0°F 96% 29.97 in 5.0 miles ENE 3.5 mph - N/A   Scattered Clouds
9:53 PM 30.0°F 28.9°F 96% 29.96 in 7.0 miles SSW 3.5 mph - N/A   Overcast
10:50 PM 28.4°F 26.6°F 93% 29.90 in 1.8 miles Calm Calm - N/A   Clear
10:53 PM 28.0°F 27.0°F 96% 29.96 in 1.5 miles Calm Calm - N/A   Clear
11:03 PM 28.4°F 26.6°F 93% 29.91 in 0.2 miles Calm Calm - N/A Fog Light Freezing Fog
11:11 PM 26.6°F 26.6°F 100% 29.91 in 0.2 miles Calm Calm - N/A Fog Light Freezing Fog
11:35 PM 26.6°F 26.6°F 100% 29.92 in 1.2 miles ESE 3.5 mph - N/A   Scattered Clouds
11:40 PM 28.4°F 26.6°F 93% 29.92 in 3.0 miles SSE 3.5 mph - N/A   Scattered Clouds
11:53 PM 27.0°F 26.1°F 96% 29.98 in 4.0 miles Calm Calm - N/A   Scattered Clouds
11:56 PM 24.8°F 24.8°F 100% 29.92 in 2.5 miles Calm Calm - N/A   Scattered Clouds
Moon Phase
Feb. 16 Feb. 17 Feb. 25 Mar. 04 Mar. 11
Sunrise:06:53 AM (PST) Moon Rise:09:36 AM (PST)2/16
Sunset:05:14 PM (PST) Moon Set:No Moon Set/

Copyright © 2014 The Weather Underground, Inc.